Location: Azul
(36.7830°S, 59.8500°W)
Time: 00:19:53
(UTC-03:00)

STARS - Pass Details

Date: 31 October 2021
Orbit: 623 x 638 km, 98.2° (Epoch: 30 November)

Event Time Altitude Azimuth Distance (km) Brightness Sun altitude
Exits shadow 22:31:20 40° 203° (SSW) 942 ? -30.1°
Drops below altitude 10° 22:34:12 10° 195° (SSW) 2,028 ? -30.5°
Sets 22:36:25 0° 194° (SSW) 2,943 ? -30.7°
